sat.trackr.live / text

‹ back to catalog

STARLINK-3098

NORAD 49442 · 2021-104AL

PAYLOAD ACTIVE UNKNOWN

§ Identity

Operator
Country
US
Launch date
2021-11-13
Launch site
AFETR
Launch vehicle
Mass (kg)
RCS (m²)

Purposes: comms

External: N2YO · Heavens-Above · Gunter

§ Orbital elements

Epoch: 2026-05-24T22:14:22.674048Z

Period
95.44 min
Inclination
53.2132°
Eccentricity
0.0001211
Mean motion
15.08833345 rev/d
Perigee alt
538.9 km
Apogee alt
540.6 km
Semi-major
6,917.9 km
B*
8.4310e-6
RAAN
226.8814°
Arg perigee
100.4594°
Mean anomaly
259.6535°
Rev number
25,042

§ Raw data

STARLINK-30981 49442U 21104AL  26144.92665132 -.00000154  00000+0  84310-5 0  99932 49442  53.2132 226.8814 0001211 100.4594 259.6535 15.08833345250428

JSON: /api/v1/satellites/49442 · /tle

For live sub-satellite position, see the globe view (requires WebGL).

§ Visibility from observer

Set your observer location to see the next 7 days of passes ≥ 10°. The values pass through the URL so the page stays shareable.

No JS? Fill the form by hand. The geolocation button needs JavaScript.